Location: Lane
(33.5226°N, 79.8788°W)
Time: 23:05:32
(UTC+00:00)

Tiros 1 - Pass Details

Date: 11 October 2022
Orbit: 629 x 662 km, 48.4° (Epoch: 09 December)

Event Time Altitude Azimuth Distance (km) Brightness Sun altitude
Rises 01:13:24 0° 241° (WSW) 2,968 11.2 -30.2°
Reaches altitude 10° 01:15:45 10° 245° (WSW) 2,063 10.3 -30.6°
Enters shadow 01:18:47 37° 263° (W) 1,027 8.5 -31.3°
